Starlink 11503

operational
NORAD ID: 63142 Int'l Des: 2025-043 Owner: SPXS Country: US Constellation: starlink
LEOCIRCULAR

关于 Starlink 11503

正在加载描述...

实时位置

正在加载3D地球...

即将过境

高度历史

Altitude vs Time

uPlot chart will show altitude changes over time

两行轨道根数

1 63142U 25043L 25258.37110727 .00246965 00000-0 18645-2 0 9998
2 63142 43.0013 227.0665 0001346 262.7428 97.3287 15.70930248 31720
Epoch: Sep 15, 2025 • Age: 17 hours

当前状态

高度 356.1 km
速度 7.70 km/s
星下点 28.10°N, 125.87°W
发射日期 Mar 3, 2025
运行时间 0.5 years
类型 internet

技术详情

分类 Payload
质量 960.00 kg
干质量 910.00 kg
总质量 960.00 kg
长度 0.30 m
直径 4.10 m
跨度 29.00 m
形状 Box + pan
制造商 SPXS
平台类型 Starlink V2MD
阶段状态 In Orbit
所有者/国家 SPXS/US

大型星座

Loading constellations...